Location: Blue Mountain Vista Observatory
(40.6992°N, 75.9422°W)
Time: 04:43:50
(UTC-04:00)

Amateur Radio Satellites - All Passes

Search period start: 21 October 2014 04:13
Search period end: 22 October 2014 04:13
Location: Blue Mountain Vista Observatory, 40.6992°N, 75.9422°W

Satellite Date Start Highest point End Downlink Frequencies (MHz)
Time Altitude Azimuth
Gurwin Techsat 1B 21 Oct 04:17:58 04:23:14 63° 287° (WNW) 04:28:27 435.225 FM
JAS-1B 21 Oct 04:18:29 04:23:52 29° 294° (WNW) 04:30:00 435.800 - 435.900 CW/SSB
Uribyol 2 21 Oct 04:19:03 04:23:35 31° 293° (WNW) 04:28:05 436.500 FM
ITAMSAT 1 21 Oct 04:23:59 04:28:29 30° 293° (WNW) 04:32:57 435.822 SSB
PCSat 21 Oct 04:24:42 04:29:27 32° 110° (ESE) 04:34:14 145.825 MHz
TMSAT-1 21 Oct 04:32:03 04:37:18 62° 287° (WNW) 04:42:30 436.925 FM
RS-15 21 Oct 04:37:09 04:44:40 20° 8° (N) 04:52:19 29.354 - 29.394 USB, Beacon 29.352 USB
AO-Echo 21 Oct 04:37:38 04:41:08 18° 297° (WNW) 04:44:40 ?
Uosat F 21 Oct 04:39:33 04:43:31 23° 94° (E) 04:47:28 435.120 FM
OPAL 21 Oct 05:10:16 05:15:25 75° 72° (ENE) 05:20:33 ?
AO-27 21 Oct 05:10:26 05:12:29 12° 301° (WNW) 05:14:31 436.795 MHz FM
JAS-2 21 Oct 05:20:53 05:26:47 23° 90° (E) 05:32:43 435.800 - 435.900 CW/SSB, 435.910 FM
AO-7 21 Oct 05:32:09 05:40:30 77° 106° (ESE) 05:48:50 29.400 - 29.500 MHz
Sapphire 21 Oct 05:44:14 05:49:33 59° 302° (WNW) 05:54:55 437.095 MHz 1200 baud AX-25 AFSK
PCSat 21 Oct 06:07:48 06:12:46 36° 307° (NW) 06:17:47 145.825 MHz
Uosat F 21 Oct 06:17:42 06:22:26 41° 290° (WNW) 06:27:07 435.120 FM
STRAND 1 21 Oct 06:48:00 06:53:03 62° 73° (ENE) 06:58:08 ?
RS-15 21 Oct 06:50:56 07:01:16 41° 41° (NE) 07:11:56 29.354 - 29.394 USB, Beacon 29.352 USB
OPAL 21 Oct 06:52:34 06:54:48 13° 268° (W) 06:57:01 ?
Hamsat 21 Oct 07:00:41 07:04:53 86° 283° (WNW) 07:09:05 145.90 MHz
JAS-2 21 Oct 07:04:38 07:12:18 74° 287° (WNW) 07:20:07 435.800 - 435.900 CW/SSB, 435.910 FM
AO-7 21 Oct 07:26:05 07:32:28 26° 306° (NW) 07:38:51 29.400 - 29.500 MHz
Sapphire 21 Oct 07:32:24 07:34:10 11° 323° (NW) 07:35:55 437.095 MHz 1200 baud AX-25 AFSK
SO-67 21 Oct 07:58:43 08:02:07 55° 100° (E) 08:05:30 435.3500 MHz FM
Saudisat 1A 21 Oct 08:04:38 08:08:00 22° 112° (ESE) 08:11:24 436.775 MHz
STRAND 1 21 Oct 08:29:42 08:32:39 15° 269° (W) 08:35:36 ?
HO-68 21 Oct 08:50:17 08:55:20 20° 92° (E) 09:00:20 435.675 MHz FM
JAS-2 21 Oct 08:51:48 08:56:07 16° 304° (NW) 09:00:32 435.800 - 435.900 CW/SSB, 435.910 FM
RS-15 21 Oct 09:03:18 09:14:19 67° 245° (WSW) 09:25:50 29.354 - 29.394 USB, Beacon 29.352 USB
Saudisat 1A 21 Oct 09:43:13 09:47:20 39° 309° (NW) 09:51:29 436.775 MHz
UKube-1 21 Oct 09:52:39 09:55:49 19° 94° (E) 09:58:57 145.840 MHz, 145.915 MHz
MaSat-1 21 Oct 09:56:29 09:58:37 20° 56° (NE) 10:00:36 437.345 MHz
FUNcube-1 21 Oct 10:25:40 10:28:24 17° 92° (E) 10:31:05 145.950 - 145.970 MHz USB
HO-68 21 Oct 10:36:28 10:43:40 74° 289° (WNW) 10:50:48 435.675 MHz FM
Oscar 11 21 Oct 10:37:01 10:41:16 55° 100° (E) 10:45:29 145.825 FM, Beacon 2401.500 USB
PANSAT 21 Oct 11:09:00 11:10:51 13° 179° (S) 11:12:42 not established
ZACube-1 21 Oct 11:15:00 11:19:16 61° 101° (E) 11:23:25 437.345 MHz
RS-15 21 Oct 11:20:09 11:24:30 13° 264° (W) 11:28:55 29.354 - 29.394 USB, Beacon 29.352 USB
UKube-1 21 Oct 11:28:05 11:32:07 37° 290° (WNW) 11:36:07 145.840 MHz, 145.915 MHz
KITSAT 1 21 Oct 11:54:44 12:00:34 23° 103° (ESE) 12:06:25 435.175 FM
FUNcube-1 21 Oct 12:00:57 12:04:59 40° 288° (WNW) 12:08:55 145.950 - 145.970 MHz USB
Oscar 16 21 Oct 12:09:30 12:10:50 11° 58° (ENE) 12:12:10 437.025 USB, Beacon 2401.1428
Oscar 11 21 Oct 12:14:49 12:16:58 14° 296° (WNW) 12:19:07 145.825 FM, Beacon 2401.500 USB
HO-68 21 Oct 12:26:30 12:30:09 15° 308° (NW) 12:33:49 435.675 MHz FM
PANSAT 21 Oct 12:49:52 12:50:13 10° 192° (SSW) 12:50:35 not established
Sapphire 21 Oct 12:50:07 12:53:48 18° 44° (NE) 12:57:28 437.095 MHz 1200 baud AX-25 AFSK
SO-50 21 Oct 12:52:09 12:53:27 11° 107° (ESE) 12:54:46 436.795 FM
ZACube-1 21 Oct 12:53:22 12:55:07 12° 298° (WNW) 12:56:51 437.345 MHz
Oscar 19 21 Oct 12:59:54 13:04:25 32° 68° (ENE) 13:08:56 437.125 CW, 437.150 USB
AO-27 21 Oct 13:09:19 13:12:37 17° 62° (ENE) 13:15:55 436.795 MHz FM
PCSat 21 Oct 13:12:36 13:17:12 27° 49° (NE) 13:21:46 145.825 MHz
JAS-1B 21 Oct 13:13:56 13:19:27 37° 68° (ENE) 13:24:36 435.800 - 435.900 CW/SSB
Oscar 16 21 Oct 13:44:11 13:49:21 84° 75° (ENE) 13:54:33 437.025 USB, Beacon 2401.1428
KITSAT 1 21 Oct 13:47:01 13:55:06 77° 302° (WNW) 14:03:13 435.175 FM
Uribyol 2 21 Oct 13:56:59 14:01:58 48° 71° (ENE) 14:06:59 436.500 FM
Gurwin Techsat 1B 21 Oct 14:00:09 14:04:26 26° 65° (ENE) 14:08:45 435.225 FM
ISS 21 Oct 14:01:48 14:04:54 37° 137° (SE) 14:08:02 145.800 FM
ITAMSAT 1 21 Oct 14:01:59 14:06:59 50° 71° (ENE) 14:12:02 435.822 SSB
AO-Echo 21 Oct 14:10:22 14:15:10 74° 75° (ENE) 14:20:10 ?
TMSAT-1 21 Oct 14:13:56 14:18:12 25° 65° (ENE) 14:22:29 436.925 FM
SO-50 21 Oct 14:28:49 14:33:18 76° 303° (WNW) 14:37:56 436.795 FM
Sapphire 21 Oct 14:32:26 14:37:53 80° 243° (WSW) 14:43:17 437.095 MHz 1200 baud AX-25 AFSK
UOSAT-12 21 Oct 14:36:12 14:37:59 12° 107° (ESE) 14:39:47 437.025 FM, 437.400 FM
Oscar 19 21 Oct 14:39:10 14:43:42 31° 264° (W) 14:48:15 437.125 CW, 437.150 USB
AO-7 21 Oct 14:40:59 14:47:01 23° 53° (NE) 14:53:02 29.400 - 29.500 MHz
AO-27 21 Oct 14:46:26 14:51:35 63° 258° (WSW) 14:56:47 436.795 MHz FM
PCSat 21 Oct 14:55:38 15:00:49 46° 248° (WSW) 15:05:57 145.825 MHz
JAS-1B 21 Oct 15:04:58 15:10:13 29° 263° (W) 15:15:08 435.800 - 435.900 CW/SSB
Oscar 16 21 Oct 15:28:01 15:29:19 11° 271° (W) 15:30:37 437.025 USB, Beacon 2401.1428
Uribyol 2 21 Oct 15:37:49 15:41:40 21° 267° (W) 15:45:32 436.500 FM
ISS 21 Oct 15:38:40 15:41:39 29° 334° (NNW) 15:44:39 145.800 FM
Gurwin Techsat 1B 21 Oct 15:39:12 15:44:10 41° 262° (W) 15:49:11 435.225 FM
Oscar 10/S400 21 Oct 15:41:42 15:59:25 51° 161° (SSE) 16:37:31 145.825 - 145.975 CW/USB, Beacon 145.810 USB
ITAMSAT 1 21 Oct 15:43:01 15:46:44 20° 267° (W) 15:50:29 435.822 SSB
KITSAT 1 21 Oct 15:45:55 15:51:53 22° 325° (NW) 15:57:54 435.175 FM
Uosat F 21 Oct 15:52:27 15:56:50 31° 67° (ENE) 16:01:15 435.120 FM
AO-Echo 21 Oct 15:52:54 15:54:32 12° 272° (W) 15:56:12 ?
TMSAT-1 21 Oct 15:52:54 15:57:53 41° 262° (W) 16:02:53 436.925 FM
SO-50 21 Oct 16:12:40 16:14:41 13° 324° (NW) 16:16:45 436.795 FM
UOSAT-12 21 Oct 16:12:50 16:17:27 75° 304° (WNW) 16:22:12 437.025 FM, 437.400 FM
AO-7 21 Oct 16:30:33 16:38:50 84° 252° (WSW) 16:47:11 29.400 - 29.500 MHz
Saudisat 1A 21 Oct 16:31:02 16:34:19 20° 44° (NE) 16:37:35 436.775 MHz
JAS-2 21 Oct 17:16:49 17:22:19 48° 68° (ENE) 17:28:32 435.800 - 435.900 CW/SSB, 435.910 FM
ISS 21 Oct 17:17:28 17:19:11 13° 354° (N) 17:20:54 145.800 FM
OPAL 21 Oct 17:21:38 17:25:07 19° 95° (E) 17:28:34 ?
Uosat F 21 Oct 17:31:12 17:35:34 30° 264° (W) 17:39:59 435.120 FM
KITSAT 1 21 Oct 17:51:05 17:51:10 10° 355° (N) 17:51:14 435.175 FM
Hamsat 21 Oct 17:53:24 17:57:35 63° 75° (ENE) 18:01:45 145.90 MHz
UOSAT-12 21 Oct 17:56:15 17:58:26 13° 323° (NW) 18:00:38 437.025 FM, 437.400 FM
Saudisat 1A 21 Oct 18:09:52 18:14:11 52° 242° (WSW) 18:18:28 436.775 MHz
AO-7 21 Oct 18:28:07 18:32:43 16° 270° (W) 18:37:21 29.400 - 29.500 MHz
SO-67 21 Oct 18:31:54 18:34:15 18° 69° (ENE) 18:36:36 435.3500 MHz FM
ISS 21 Oct 18:54:43 18:56:56 16° 14° (NNE) 18:59:08 145.800 FM
OPAL 21 Oct 18:59:28 19:04:15 48° 291° (WNW) 19:08:59 ?
STRAND 1 21 Oct 18:59:44 19:03:38 21° 94° (E) 19:07:31 ?
JAS-2 21 Oct 19:03:04 19:07:44 25° 269° (W) 19:12:53 435.800 - 435.900 CW/SSB, 435.910 FM
HO-68 21 Oct 19:20:26 19:24:33 16° 53° (NE) 19:28:40 435.675 MHz FM
Hamsat 21 Oct 19:33:12 19:33:55 10° 270° (W) 19:34:38 145.90 MHz
KITSAT 1 21 Oct 19:46:18 19:50:56 16° 27° (NNE) 19:55:34 435.175 FM
SO-67 21 Oct 20:04:12 20:07:03 24° 264° (W) 20:09:56 435.3500 MHz FM
ISS 21 Oct 20:30:53 20:34:11 58° 33° (NNE) 20:37:29 145.800 FM
STRAND 1 21 Oct 20:38:07 20:43:01 45° 290° (WNW) 20:47:53 ?
UKube-1 21 Oct 20:48:23 20:51:14 17° 64° (ENE) 20:54:06 145.840 MHz, 145.915 MHz
HO-68 21 Oct 21:04:01 21:11:09 82° 72° (ENE) 21:18:22 435.675 MHz FM
RS-15 21 Oct 21:18:47 21:25:50 20° 100° (E) 21:32:48 29.354 - 29.394 USB, Beacon 29.352 USB
SO-50 21 Oct 21:21:22 21:24:11 15° 39° (NE) 21:27:00 436.795 FM
FUNcube-1 21 Oct 21:22:06 21:24:48 16° 64° (ENE) 21:27:29 145.950 - 145.970 MHz USB
Oscar 11 21 Oct 21:31:41 21:35:45 41° 72° (ENE) 21:39:50 145.825 FM, Beacon 2401.500 USB
KITSAT 1 21 Oct 21:40:42 21:48:32 51° 52° (NE) 21:56:19 435.175 FM
ISS 21 Oct 22:08:27 22:10:34 16° 229° (SW) 22:12:41 145.800 FM
ZACube-1 21 Oct 22:10:40 22:15:06 49° 73° (ENE) 22:19:30 437.345 MHz
UKube-1 21 Oct 22:22:56 22:27:04 44° 261° (W) 22:31:15 145.840 MHz, 145.915 MHz
HO-68 21 Oct 22:55:05 22:59:36 18° 270° (W) 23:04:10 435.675 MHz FM
FUNcube-1 21 Oct 22:56:12 23:00:43 55° 260° (W) 23:05:13 145.950 - 145.970 MHz USB
SO-50 21 Oct 23:00:34 23:05:26 87° 58° (ENE) 23:10:20 436.795 FM
UOSAT-12 21 Oct 23:04:06 23:06:40 14° 38° (NE) 23:09:13 437.025 FM, 437.400 FM
Oscar 11 21 Oct 23:09:19 23:12:07 17° 268° (W) 23:14:55 145.825 FM, Beacon 2401.500 USB
RS-15 21 Oct 23:25:27 23:36:29 86° 120° (ESE) 23:47:27 29.354 - 29.394 USB, Beacon 29.352 USB
MaSat-1 21 Oct 23:35:37 23:36:52 11° 104° (ESE) 23:38:06 437.345 MHz
KITSAT 1 21 Oct 23:36:27 23:43:43 38° 251° (WSW) 23:50:57 435.175 FM
ZACube-1 21 Oct 23:48:50 23:51:43 16° 268° (W) 23:54:36 437.345 MHz
UOSAT-12 22 Oct 00:42:48 00:47:33 85° 58° (ENE) 00:52:12 437.025 FM, 437.400 FM
SO-50 22 Oct 00:44:06 00:45:17 11° 254° (WSW) 00:46:28 436.795 FM
MaSat-1 22 Oct 01:08:01 01:12:15 62° 297° (WNW) 01:16:05 437.345 MHz
Oscar 19 22 Oct 01:14:37 01:15:25 10° 88° (E) 01:16:12 437.125 CW, 437.150 USB
RS-15 22 Oct 01:40:47 01:50:15 32° 326° (NW) 01:59:50 29.354 - 29.394 USB, Beacon 29.352 USB
Oscar 16 22 Oct 01:56:40 02:01:09 30° 96° (E) 02:05:36 437.025 USB, Beacon 2401.1428
Uribyol 2 22 Oct 02:11:10 02:14:33 17° 92° (E) 02:17:54 436.500 FM
ITAMSAT 1 22 Oct 02:16:13 02:19:45 18° 92° (E) 02:23:16 435.822 SSB
AO-Echo 22 Oct 02:18:10 02:22:35 26° 94° (E) 02:26:59 ?
UOSAT-12 22 Oct 02:26:14 02:26:57 10° 254° (WSW) 02:27:39 437.025 FM, 437.400 FM
JAS-1B 22 Oct 02:45:58 02:52:28 69° 103° (ESE) 03:00:15 435.800 - 435.900 CW/SSB
Oscar 19 22 Oct 02:50:15 02:55:23 86° 285° (WNW) 03:00:30 437.125 CW, 437.150 USB
AO-27 22 Oct 02:59:49 03:04:54 48° 100° (E) 03:09:55 436.795 MHz FM
Sapphire 22 Oct 03:33:54 03:36:23 13° 103° (ESE) 03:38:53 437.095 MHz 1200 baud AX-25 AFSK
Oscar 16 22 Oct 03:35:57 03:40:27 32° 292° (WNW) 03:44:57 437.025 USB, Beacon 2401.1428
Uribyol 2 22 Oct 03:49:16 03:54:22 57° 288° (WNW) 03:59:26 436.500 FM
ITAMSAT 1 22 Oct 03:54:28 03:59:34 54° 288° (WNW) 04:04:37 435.822 SSB
PCSat 22 Oct 03:54:48 03:59:01 24° 107° (ESE) 04:03:14 145.825 MHz
Gurwin Techsat 1B 22 Oct 03:55:15 04:00:36 83° 103° (ESE) 04:05:55 435.225 FM
AO-Echo 22 Oct 03:56:30 04:01:24 40° 290° (WNW) 04:06:19 ?
